Skip Page Navigation
NASA JPL Caltech
NASA Logo - Jet Propulsion Laboratory + View the NASA Portal
+ Center for Near-Earth Object Studies
JPL Home Earth Solar System Stars & Galaxies Technology
JPL Solar System Dynamics
BODIES ORBITS EPHEMERIDES TOOLS PHYSICAL DATA DISCOVERY FAQ SITE MAP
JPL Small-Body Database Browser
Search: [ help ]  
100620 (1997 TM20)
Classification: Main-belt Asteroid          SPK-ID: 2100620
Ephemeris | Orbit Diagram | Orbital Elements | Mission Design | Physical Parameters | Discovery Circumstances | Close-Approach Data ]

[ show orbit diagram ]
Orbital Elements at Epoch 2459200.5 (2020-Dec-17.0) TDB
Reference: JPL 22 (heliocentric ecliptic J2000)
 Element Value Uncertainty (1-sigma)   Units 
e .0442614963053981 1.21e-07  
a 3.106750909110365 3.2667e-08 au
q 2.969241465224985 3.9316e-07 au
i 15.64500894288856 6.0613e-06 deg
node 29.50856145955924 2.1621e-05 deg
peri 125.3640659042833 0.00011749 deg
M 323.6354672261651 0.00010463 deg
tp 2459402.538245849684
(2021-Jul-07.03824585)
0.00057989 TDB
period 2000.129328162851
5.48
3.1546e-05
8.637e-08
d
yr
n .1799883612179545 2.8388e-09 deg/d
Q 3.244260352995745 3.4113e-08 au
  Orbit Determination Parameters
   # obs. used (total)      343  
   data-arc span      8556 days (23.43 yr)  
   first obs. used      1997-10-03  
   last obs. used      2021-03-07  
   planetary ephem.      DE441  
   SB-pert. ephem.      SB441-N16  
   condition code      0  
   norm. resid. RMS      .49599  
   source      ORB  
   producer      Otto Matic  
   solution date      2021-Apr-13 15:33:00  

Additional Information
 Earth MOID = 1.99715 au 
 Jupiter MOID = 1.75377 au 
 T_jup = 3.162 
[ show covariance matrix ]

Ephemeris | Orbit Diagram | Orbital Elements | Mission Design | Physical Parameters | Discovery Circumstances | Close-Approach Data ]

Physical Parameter Table
Parameter Symbol Value Units Sigma Reference Notes
absolute magnitude H 15.3   n/a MPO532308  
diameter diameter 5.645 km 0.163 urn:nasa:pds:neowise_diameters_albedos::2.0[mainbelt] (http://adsabs.harvard.edu/abs/2011ApJ...741...68M)  
geometric albedo albedo 0.046   0.004 urn:nasa:pds:neowise_diameters_albedos::2.0[mainbelt] (http://adsabs.harvard.edu/abs/2011ApJ...741...68M)  

100620 (1997 TM20)          Discovered 1997-Oct-03 by Spacewatch at Kitt Peak
Reference: 20051019/Numbers.arcLast Updated: 2005-10-26

[ show close-approach data ]
Ephemeris | Orbit Diagram | Orbital Elements | Mission Design | Physical Parameters | Discovery Circumstances | Close-Approach Data ]
ABOUT SSD CREDITS/AWARDS PRIVACY/COPYRIGHT GLOSSARY LINKS
FirstGov 2021-Apr-14 05:34 UT
(server date/time)  
NASA Home Page
Site Manager:   Ryan S. Park
Webmaster  Alan B. Chamberlin